Powrót do katalogu

OPS 4682 DEB

AktywnyPO
NORAD 1316·DEBRIS·🇺🇸 United States

Wystrzelony Apr 3, 1965 z Vandenberg Space Force Base

Loading…

Następne Przeloty (najbliższe 24 godziny)

TLE

ŚwieżeSource: Space-Track

Epoka: Sep 14, 2026, 14:35 UTC

1 01316U 65027C   26257.60771169  .00000807  00000-0  19063-2 0  9996
2 01316  90.2673  29.7703 0032390 290.8318  68.9349 13.22635061930826

Śledź OPS 4682 DEB w czasie rzeczywistym z AllMySat

Download on the App Store